OBJECT H, 44886

Orbit data source: Space-Track

You're viewing an Uncataloged Satellite

Recently launched and/or uncataloged satellites may have evolving metadata. Metadata may include but not limited to: Owner, Maufacturer, Bus, Motor, and Mission.

OBJECT H, 44886 is a satellite in SSO that was launched on Fri, 20 Dec 2019 UTC via a CHANG ZHENG 4B launch vehicle from the Taiyaun Space Center, China (TSC). Unknown objects in Earth's orbit typically refer to objects detected orbiting the Earth but have not yet been identified or cataloged. These objects could be anything from previously untracked satellites, spent rocket stages, debris from satellite collisions, or even natural meteoroids temporarily captured by Earth's gravity.

Loading next visibility...
OBJECT H details
Identifier
44886, 2019-093H
Orbit
SSO
Last TLE update7 hours ago
Origin
Flag of TBDTLCJ/ZXKJ (TBD)
ManufacturerWeina
MissionOperational Commercial Imaging
Bus & MotorMN50, Unknown motor
Mass72 kg wet, 72 kg dry
Launch date (UTC)
2019-12-20 (5 years ago)
Launch vehicle
CHANG ZHENG 4B
Launch site
Taiyaun Space Center, China (TSC)
Object typeUnknown
Shape & HBRBox + 2 Pan, Unknown HBR
Radar Cross Section0.195 m², Medium (>0.1 m² and < 1m²)

Expand to show TLE details & history

TLE from 7 hours ago
0 OBJECT H
1 44886U 19093H   24337.19269174  .00007422  00000-0  76810-3 0  9990
2 44886  97.8368  58.0374 0014089 127.9160 232.3334 14.90289038268323
Epoch: 2024-12-02T04:37Z
Definitive object data (Epoch: 2024-12-02T04:37:28.566Z)
Latitude0.00001°
Longitude-82.8517°
Altitude606.086 km
Speed7.553 km/s
True Right ascension03h 52m 08s
True Declination0° 00' 00"
Sunlit
Object was in full shadow at TLE epoch
Visualization TLE readout
Latitude29.86039°
Longitude101.94969°
Altitude591.792 km
Speed7.572 km/s
Apparent Right ascension18h 31m 07s
Apparent Declination-4° 12' 19"
Sunlit
Object is in daylight
Visualization observer readout
Local Sidereal Time09:31:09
Azimuth60.678° ENE
Elevation-36.003°
Doppler factor1
Orbital elements
Apogee altitude603.881 km
Perigee altitude584.235 km
Semi-major axis6,972.195 km
Eccentricity0.0014089
Inclination97.8368°
RAAN58.0374°
Arg. of periapsis127.916°
True anomaly232.20574°
Mean anomaly232.3334°
Eccentric anomaly232.26956°
Mean motion3.72811 °/min
BSTAR0.0007681
Orbital period96.56 mins
Loading maneuver chart data...
Loading historical data...
Loading historical data...
Loading historical data...
Loading historical data...
Loading historical data...
Loading historical data...
Loading historical data...

OBJECT H Visibility forecast

Observer location: undefined°, undefined

Span
Click to sort rows by Start time (UTC) header in descending order
Start Az.
Max El. time (UTC)
Max El. Az.
Max El.
End time (UTC)
End Az.
7 mins2024-12-02 18:05:23.145Z29.212° NE2024-12-02 18:08:23.145Z88.379° E35.114°2024-12-02 18:12:23.145Z172.108° S
5 mins2024-12-03 04:57:23.145Z111.448° ESE2024-12-03 04:59:23.145Z63.879° ENE26.379°2024-12-03 05:02:23.145Z12.413° NNE
4 mins2024-12-03 06:33:23.145Z237.966° WSW2024-12-03 06:34:23.145Z256.653° W19.377°2024-12-03 06:37:23.145Z308.991° NW
|